Regional Weather Roundup
Issued by NWS

Home | Current Version | Previous Version | Graphics & Text | Print | Product List | Glossary On
Versions: 1 2 3 4 5 6 7 8 9 10 11 12 13 14 15 16 17 18 19 20 21 22 23 24 25 26 27 28 29 30 31 32 33 34 35 36 37 38 39 40 41 42 43 44 45 46 47 48 49 50
596
ASUS44 KMEG 261000
RWRTN
TENNESSEE HOURLY STATE WEATHER ROUNDUP
NATIONAL WEATHER SERVICE MEMPHIS TN
400 AM CST SUN FEB 26 2017

TNZ002-004-019-021-049-052-054-088>092-261100-
WEST TENNESSEE

CITY           SKY/WX    TMP DP  RH WIND       PRES   REMARKS
MEMPHIS INTL   PTCLDY    32  23  69 CALM      30.17R
NWS MEMPHIS      N/A     29 N/A N/A MISG        N/A
JACKSON        CLEAR     24  22  91 CALM      30.18R
UNION CITY     CLEAR     25  25 100 CALM      30.17R
PARIS          CLEAR     21  18  86 NE3       30.18R
$$

TNZ008-025-027-028-033-062-065-066-261100-
NORTH MIDDLE TENNESSEE

CITY           SKY/WX    TMP DP  RH WIND       PRES   REMARKS
NASHVILLE      CLEAR     30  22  72 S3        30.19R
CLARKSVILLE    CLEAR     24  19  81 CALM      30.19R
SMYRNA         CLEAR     23  21  92 CALM      30.21R
CROSSVILLE     CLEAR     23  18  81 CALM      30.13R
$$

TNZ061-075-076-078-094-096-097-261100-
SOUTH MIDDLE TENNESSEE

CITY           SKY/WX    TMP DP  RH WIND       PRES   REMARKS
TULLAHOMA      CLEAR     25  18  74 CALM      30.16R
WINCHESTER     CLEAR     27  23  86 CALM      30.17R
MCMINNVILLE    CLEAR     25  23  93 CALM      30.16R
COLUMBIA       CLEAR     25  25 100 SW3       30.17R
SHELBYVILLE    CLEAR     27  25  93 E3        30.19R
$$

TNZ017-018-042-046-047-261100-
NORTHEAST TENNESSEE

CITY           SKY/WX    TMP DP  RH WIND       PRES   REMARKS
TRI CITIES     CLEAR     27  18  69 SW6       30.12R WCI  20
$$

TNZ012-013-036-069-073-074-261100-
CENTRAL EAST TENNESSEE

CITY           SKY/WX    TMP DP  RH WIND       PRES   REMARKS
KNOXVILLE      CLEAR     32  23  69 CALM      30.16R
OAK RIDGE      CLEAR     30  22  72 CALM      30.18R
GATLINBURG     CLEAR     25  19  80 CALM      30.16R
$$

TNZ083-085-099-261100-
SOUTHEAST TENNESSEE

CITY           SKY/WX    TMP DP  RH WIND       PRES   REMARKS
CHATTANOOGA    CLEAR     32  22  66 NW5       30.17R WCI  27
$$

SKY/WX REPORTED AS FAIR MEANS FEW OR NO CLOUDS BELOW
12 THOUSAND FEET.





USA.gov is the U.S. government's official web portal to all federal, state and local government web resources and services.